Tracking 35048 objects as of 19-Aug-2026
HD Live streaming from Space Station
objects crossing your sky now

STARLINK-32682

Track STARLINK-32682 now!
10-day predictions
STARLINK-32682 is classified as:


NORAD ID: 62196
Int'l Code: 2024-229E
Launch date: December 4, 2024
Source: United States (US)
Launch site: AIR FORCE EASTERN TEST RANGE (AFETR)
Your satellite tracking list
Your tracking list is empty




NASA's NSSDC Master Catalog

Two Line Element Set (TLE):
1 62196U 24229E   26230.97420591  .00010879  00000-0  40405-3 0  9994
2 62196  43.0001  41.5445 0001374 274.5887  85.4807 15.27599100 95750
Source of the keplerian elements: AFSPC